This demonstration page uses our WeatherBlox Daily Observations layout. Learn more.

Left ArrowRight Arrow

39.92423, -83.80882

Hourly Observations for June 2, 2021

Temp ( °F °C ) Dew Point ( °F °C ) Humidity (%) Winds ( mph kmh ) Pressure ( in mb ) Visibility ( mi km ) Precip ( " mm )
12:56 am 00:56 Cloudy with Light Rain 63 17.2 59 15 87 87 W 5 7 30.15 1021 10 16 0.00 0.00
1:56 am 01:56 Cloudy with Light Rain 62 16.7 62 16.7 100 100 N N/A 30.13 1020 10 16 0.00 0.00
2:56 am 02:56 Cloudy with Light Rain 61 16 N/A N/A N N/A 30.12 1020 10 16 0.00 0.00
3:56 am 03:56 Cloudy with Light Rain 61 16 N/A N/A N 3 6 30.12 1020 10 16 0.01 0.25
4:56 am 04:56 Cloudy with Light Rain 61 16 N/A N/A E 6 9 30.10 1019 9 14 0.03 0.76
5:56 am 05:56 Cloudy with Light Rain 61 16 N/A N/A E 8 13 30.09 1019 10 16 0.00 0.00
6:56 am 06:56 Cloudy with Light Rain 61 16 N/A N/A E 9 15 30.08 1019 7 11 0.00 0.00
7:56 am 07:56 Cloudy with Light Rain 61 16 N/A N/A E 8 13 30.09 1019 4 6 0.02 0.51
8:56 am 08:56 Cloudy with Light Rain 63 17 N/A N/A SSE 6 9 30.10 1019 10 16 0.03 0.76
9:28 am 09:28 Cloudy with Light Rain 63 17 N/A N/A SSE 8 13 30.08 1019 8 13 0.02 0.51
9:56 am 09:56 Cloudy with Light Rain 63 17 N/A N/A SE 9 15 30.09 1019 9 14 0.04 1.02
10:33 am 10:33 Cloudy with Light Rain 63 17 N/A N/A SSE 8 13 30.08 1019 9 14 0.03 0.76
10:56 am 10:56 Cloudy with Light Rain 63 17 N/A N/A S 8 13 30.09 1019 7 11 0.04 1.02
11:07 am 11:07 Mostly Cloudy with Light Rain 63 17 N/A N/A SSE 9 15 30.07 1018 8 13 0.01 0.25
11:56 am 11:56 Cloudy with Light Rain 64 18 N/A N/A SSE 10 17 30.08 1019 10 16 0.03 0.76
12:21 pm 12:21 Cloudy with Light Rain 64 18 N/A N/A SSE 10 17 30.06 1018 10 16 0.00 0.00
12:38 pm 12:38 Cloudy with Light Rain 64 18 N/A N/A SSE 12 19 30.07 1018 10 16 0.01 0.25
12:45 pm 12:45 Cloudy with Light Rain 64 18 N/A N/A S 10 17 30.07 1018 10 16 0.01 0.25
12:53 pm 12:53 Cloudy with Light Rain 64 18 N/A N/A S 10 17 30.06 1018 10 16 0.01 0.25
12:56 pm 12:56 Cloudy with Light Rain 64 18 N/A N/A SSE 9 15 30.08 1019 10 16 0.02 0.51
1:03 pm 13:03 Cloudy with Light Rain 64 18 N/A N/A S 9 15 30.06 1018 10 16 0.00 0.00
1:56 pm 13:56 Cloudy with Light Rain 64 18 N/A N/A S 12 19 30.07 1018 10 16 0.02 0.51
2:07 pm 14:07 Cloudy with Light Rain 64 18 N/A N/A S 8 13 30.05 1018 10 16 0.01 0.25
2:18 pm 14:18 Cloudy with Light Rain 64 18 N/A N/A S 7 11 30.05 1018 10 16 0.01 0.25
2:56 pm 14:56 Cloudy with Light Rain 64 18 N/A N/A S 9 15 30.05 1018 10 16 0.03 0.76
3:07 pm 15:07 Cloudy with Light Rain 64 18 N/A N/A S 7 11 30.04 1017 9 14 0.01 0.25
3:26 pm 15:26 Cloudy with Light Rain 64 18 N/A N/A SSE 8 13 30.03 1017 9 14 0.02 0.51
3:56 pm 15:56 Cloudy with Light Rain 64 18 N/A N/A SSE 9 15 30.04 1017 9 14 0.03 0.76
4:22 pm 16:22 Cloudy with Rain 64 18 N/A N/A SSE 9 15 30.01 1016 7 11 0.02 0.51
4:48 pm 16:48 Cloudy with Light Rain 64 18 N/A N/A SE 10 17 29.99 1016 10 16 0.04 1.02
4:56 pm 16:56 Cloudy with Light Rain 64 18 N/A N/A ESE 9 15 30.01 1016 10 16 0.05 1.27
5:38 pm 17:38 Cloudy with Light Rain 64 18 N/A N/A SE 9 15 29.96 1015 5 8 0.03 0.76
5:45 pm 17:45 Cloudy with Light Rain 64 18 N/A N/A SE 10 17 29.96 1015 6 10 0.04 1.02
5:56 pm 17:56 Cloudy with Light Rain 63 17 N/A N/A SE 15 24 29.97 1015 5 8 0.05 1.27
6:03 pm 18:03 Cloudy with Light Rain 63 17 N/A N/A SE 12 19 29.95 1014 5 8 0.00 0.00
6:20 pm 18:20 Cloudy with Light Rain 63 17 N/A N/A S 6 9 29.94 1014 3 4 0.02 0.51
6:27 pm 18:27 Cloudy with Light Rain 63 17 N/A N/A SSE 10 17 29.94 1014 4 6 0.02 0.51
6:56 pm 18:56 Cloudy with Light Rain 63 17 N/A N/A SSE 10 17 29.95 1014 7 11 0.05 1.27
7:56 pm 19:56 Cloudy with Light Rain 63 17 N/A N/A SSE 13 20 29.94 1014 5 8 0.05 1.27
8:56 pm 20:56 Cloudy with Light Rain 63 17 N/A N/A S 9 15 29.94 1014 6 10 0.04 1.02
9:56 pm 21:56 Cloudy 63 17 N/A N/A SSW 5 7 29.95 1014 9 14 0.04 1.02
10:36 pm 22:36 Cloudy with Light Rain 63 17 N/A N/A S 6 9 29.94 1014 7 11 0.02 0.51
10:56 pm 22:56 Cloudy with Light Rain 63 17 N/A N/A S 6 9 29.95 1014 7 11 0.02 0.51
11:56 pm 23:56 Cloudy with Haze 63 17 N/A N/A SSW 7 11 29.95 1014 6 10 0.02 0.51

Powered by AerisWeather